This is the latest recevied weather packets stored in our database for station/object KD8JAM. If no packets are shown the sender has not sent any weather packets the latest 10 day(s).
| Time | Temp. | Humidity | Pressure | Rain* | Wind** | Luminosity | Snow |
|---|---|---|---|---|---|---|---|
| 1777663505 | 5° C | 59% | 1019.4 hPa | 0 mm | - | 698 W/m² | - |
| 1777663203 | 5° C | 58% | 1019.4 hPa | 0 mm | - | 717 W/m² | - |
| 1777662899 | 5° C | 60% | 1019.4 hPa | 0 mm | - | 710 W/m² | - |
| 1777662596 | 5° C | 58% | 1019.2 hPa | 0 mm | - | 715 W/m² | - |
| 1777662292 | 4.44° C | 60% | 1019.2 hPa | 0 mm | - | 721 W/m² | - |
| 1777661987 | 5° C | 60% | 1019.6 hPa | 0 mm | - | 722 W/m² | - |
| 1777661683 | 4.44° C | 60% | 1019.3 hPa | 0 mm | - | 726 W/m² | - |
| 1777661380 | 4.44° C | 61% | 1019.1 hPa | 0 mm | - | 728 W/m² | - |
| 1777661076 | 4.44° C | 60% | 1019.3 hPa | 0 mm | - | 726 W/m² | - |
| 1777660771 | 4.44° C | 62% | 1019.2 hPa | 0 mm | - | 727 W/m² | - |
| 1777660468 | 5.56° C | 62% | 1019.3 hPa | 0 mm | - | 733 W/m² | - |
| 1777660164 | 5° C | 61% | 1019.6 hPa | 0 mm | - | 733 W/m² | - |
| 1777659861 | 4.44° C | 63% | 1019.4 hPa | 0 mm | - | 721 W/m² | - |
| 1777659558 | 4.44° C | 61% | 1019.3 hPa | 0 mm | - | 706 W/m² | - |
| 1777659256 | 4.44° C | 65% | 1019.3 hPa | 0 mm | - | 717 W/m² | - |
| 1777658952 | 4.44° C | 61% | 1019.3 hPa | 0 mm | - | 737 W/m² | - |
| 1777658649 | 5° C | 61% | 1019.3 hPa | 0 mm | - | 745 W/m² | - |
| 1777658346 | 4.44° C | 61% | 1019.1 hPa | 0 mm | - | 740 W/m² | - |
| 1777658043 | 4.44° C | 64% | 1019.4 hPa | 0 mm | - | 749 W/m² | - |
| 1777657739 | 4.44° C | 65% | 1019.4 hPa | 0 mm | - | 715 W/m² | - |
| 1777657437 | 4.44° C | 63% | 1019.3 hPa | 0 mm | - | 718 W/m² | - |
| 1777657134 | 4.44° C | 65% | 1019.2 hPa | 0 mm | - | 732 W/m² | - |
| 1777656832 | 3.89° C | 67% | 1019.1 hPa | 0 mm | - | 704 W/m² | - |
| 1777656527 | 3.89° C | 66% | 1019.1 hPa | 0 mm | - | 714 W/m² | - |
| 1777656222 | 3.89° C | 66% | 1019.3 hPa | 0 mm | - | 750 W/m² | - |
* Rain latest hour (hover to see other rain measurements)
** Current wind speed in m/s (hover to see current wind gust speed)